TimeEDT,TemperatureF,Dew PointF,Humidity,Sea Level PressureIn,VisibilityMPH,Wind Direction,Wind SpeedMPH,Gust SpeedMPH,PrecipitationIn,Events,Conditions,WindDirDegrees,DateUTC
12:53 AM,54.0,46.9,77,30.12,10.0,NNW,4.6,-,N/A,,Clear,340,2013-08-14 04:53:00
1:53 AM,52.0,46.0,80,30.13,10.0,NW,4.6,-,N/A,,Clear,310,2013-08-14 05:53:00
2:53 AM,52.0,45.0,77,30.13,10.0,North,4.6,-,N/A,,Clear,350,2013-08-14 06:53:00
3:53 AM,48.9,45.0,86,30.14,10.0,NW,3.5,-,N/A,,Clear,310,2013-08-14 07:53:00
4:53 AM,48.9,44.1,83,30.14,10.0,NW,3.5,-,N/A,,Clear,320,2013-08-14 08:53:00
5:53 AM,48.9,44.1,83,30.16,10.0,NNW,3.5,-,N/A,,Clear,340,2013-08-14 09:53:00
6:53 AM,48.0,44.1,86,30.17,10.0,NW,4.6,-,N/A,,Clear,310,2013-08-14 10:53:00
7:53 AM,50.0,46.0,86,30.19,10.0,West,3.5,-,N/A,,Clear,280,2013-08-14 11:53:00
8:53 AM,55.9,46.9,72,30.20,10.0,North,6.9,-,N/A,,Clear,10,2013-08-14 12:53:00
9:53 AM,59.0,48.9,69,30.21,10.0,NNE,6.9,-,N/A,,Clear,20,2013-08-14 13:53:00
10:53 AM,62.1,46.9,58,30.22,10.0,North,11.5,-,N/A,,Clear,10,2013-08-14 14:53:00
11:53 AM,64.9,48.0,54,30.21,10.0,North,8.1,-,N/A,,Clear,350,2013-08-14 15:53:00
12:53 PM,66.9,48.0,51,30.20,10.0,North,6.9,-,N/A,,Mostly Cloudy,350,2013-08-14 16:53:00
1:53 PM,66.0,46.0,48,30.20,10.0,NNW,8.1,-,N/A,,Mostly Cloudy,330,2013-08-14 17:53:00
2:53 PM,68.0,46.0,45,30.19,10.0,Variable,5.8,-,N/A,,Partly Cloudy,0,2013-08-14 18:53:00
3:53 PM,66.9,46.0,47,30.19,10.0,NNE,3.5,-,N/A,,Mostly Cloudy,30,2013-08-14 19:53:00
4:53 PM,70.0,46.9,44,30.17,10.0,Variable,3.5,-,N/A,,Clear,0,2013-08-14 20:53:00
5:53 PM,70.0,46.0,42,30.17,10.0,North,3.5,-,N/A,,Partly Cloudy,360,2013-08-14 21:53:00
6:53 PM,70.0,46.9,44,30.16,10.0,ENE,5.8,-,N/A,,Mostly Cloudy,60,2013-08-14 22:53:00
7:53 PM,69.1,48.0,47,30.15,10.0,Calm,Calm,-,N/A,,Overcast,0,2013-08-14 23:53:00
8:53 PM,63.0,51.1,65,30.17,10.0,West,8.1,-,N/A,,Overcast,280,2013-08-15 00:53:00
9:53 PM,57.9,48.9,72,30.18,10.0,WNW,4.6,-,N/A,,Clear,290,2013-08-15 01:53:00
10:53 PM,57.0,48.9,74,30.19,10.0,Calm,Calm,-,N/A,,Clear,0,2013-08-15 02:53:00
11:53 PM,53.1,48.0,83,30.19,10.0,Calm,Calm,-,N/A,,Clear,0,2013-08-15 03:53:00